Time,TemperatureF,DewpointF,PressureIn,WindDirection,WindDirectionDegrees,WindSpeedMPH,WindSpeedGustMPH,Humidity,HourlyPrecipIn,Conditions,Clouds,dailyrainin,SoftwareType,DateUTC
2013-07-11 00:02:00,70.1,64.0,29.91,NNW,339,1.0,3.0,81,0.00,,,0.06,weatherlink.com 1.10,2013-07-11 04:02:00,
2013-07-11 00:17:00,69.9,62.0,29.91,NE,44,0.0,2.0,75,0.00,,,0.00,weatherlink.com 1.10,2013-07-11 04:17:00,
2013-07-11 00:32:00,69.6,61.0,29.91,NW,316,1.0,3.0,74,0.00,,,0.00,weatherlink.com 1.10,2013-07-11 04:32:00,
2013-07-11 00:48:00,68.6,60.0,29.91,North,355,1.0,3.0,75,0.00,,,0.00,weatherlink.com 1.10,2013-07-11 04:48:00,
2013-07-11 01:03:00,68.1,60.0,29.90,NNW,338,0.0,4.0,75,0.00,,,0.00,weatherlink.com 1.10,2013-07-11 05:03:00,
2013-07-11 01:18:00,67.4,60.0,29.91,WNW,287,0.0,3.0,76,0.00,,,0.00,weatherlink.com 1.10,2013-07-11 05:18:00,
2013-07-11 01:33:00,66.6,59.0,29.91,West,278,0.0,3.0,77,0.00,,,0.00,weatherlink.com 1.10,2013-07-11 05:33:00,
2013-07-11 01:48:00,65.7,59.0,29.91,West,278,0.0,1.0,79,0.00,,,0.00,weatherlink.com 1.10,2013-07-11 05:48:00,
2013-07-11 02:03:00,64.7,59.0,29.92,West,278,0.0,1.0,82,0.00,,,0.00,weatherlink.com 1.10,2013-07-11 06:03:00,
2013-07-11 02:18:00,63.8,59.0,29.91,West,278,0.0,0.0,84,0.00,,,0.00,weatherlink.com 1.10,2013-07-11 06:18:00,
2013-07-11 02:33:00,63.9,59.0,29.91,NNE,25,0.0,1.0,83,0.00,,,0.00,weatherlink.com 1.10,2013-07-11 06:33:00,
2013-07-11 02:48:00,63.7,59.0,29.92,NNW,333,0.0,1.0,84,0.00,,,0.00,weatherlink.com 1.10,2013-07-11 06:48:00,
2013-07-11 03:03:00,63.4,59.0,29.92,NNE,17,0.0,1.0,85,0.00,,,0.00,weatherlink.com 1.10,2013-07-11 07:03:00,
2013-07-11 03:18:00,64.3,59.0,29.92,ENE,76,0.0,1.0,83,0.00,,,0.00,weatherlink.com 1.10,2013-07-11 07:18:00,
2013-07-11 03:33:00,64.7,60.0,29.92,West,276,0.0,1.0,84,0.00,,,0.00,weatherlink.com 1.10,2013-07-11 07:33:00,
2013-07-11 03:48:00,64.8,60.0,29.91,NW,316,0.0,3.0,83,0.00,,,0.00,weatherlink.com 1.10,2013-07-11 07:48:00,
2013-07-11 04:03:00,64.6,59.0,29.92,North,6,0.0,4.0,82,0.00,,,0.00,weatherlink.com 1.10,2013-07-11 08:03:00,
2013-07-11 04:18:00,64.3,59.0,29.92,NE,44,1.0,4.0,83,0.00,,,0.00,weatherlink.com 1.10,2013-07-11 08:18:00,
2013-07-11 04:33:00,63.7,59.0,29.92,NE,37,2.0,5.0,84,0.00,,,0.00,weatherlink.com 1.10,2013-07-11 08:33:00,
2013-07-11 04:48:00,63.1,59.0,29.93,North,8,0.0,2.0,85,0.00,,,0.00,weatherlink.com 1.10,2013-07-11 08:48:00,
2013-07-11 05:03:00,62.5,58.0,29.93,NNE,30,1.0,2.0,86,0.00,,,0.00,weatherlink.com 1.10,2013-07-11 09:03:00,
2013-07-11 05:18:00,61.9,58.0,29.94,NNE,13,0.0,2.0,87,0.00,,,0.00,weatherlink.com 1.10,2013-07-11 09:18:00,
2013-07-11 05:33:00,61.3,58.0,29.94,North,359,0.0,1.0,88,0.00,,,0.00,weatherlink.com 1.10,2013-07-11 09:33:00,
2013-07-11 05:48:00,60.7,57.0,29.94,NNE,20,0.0,1.0,88,0.00,,,0.00,weatherlink.com 1.10,2013-07-11 09:48:00,
2013-07-11 06:03:00,60.1,57.0,29.95,NNE,17,0.0,1.0,90,0.00,,,0.00,weatherlink.com 1.10,2013-07-11 10:03:00,
2013-07-11 06:18:00,59.5,57.0,29.95,NNE,17,0.0,1.0,91,0.00,,,0.00,weatherlink.com 1.10,2013-07-11 10:18:00,
2013-07-11 06:33:00,59.0,57.0,29.96,North,8,0.0,1.0,92,0.00,,,0.00,weatherlink.com 1.10,2013-07-11 10:33:00,
2013-07-11 06:48:00,58.8,57.0,29.96,North,8,0.0,1.0,92,0.00,,,0.00,weatherlink.com 1.10,2013-07-11 10:48:00,
2013-07-11 07:03:00,59.1,57.0,29.96,North,358,0.0,0.0,93,0.00,,,0.00,weatherlink.com 1.10,2013-07-11 11:03:00,
2013-07-11 07:18:00,59.8,57.0,29.96,NE,51,0.0,1.0,91,0.00,,,0.00,weatherlink.com 1.10,2013-07-11 11:18:00,
2013-07-11 07:33:00,60.6,58.0,29.96,NE,40,1.0,1.0,90,0.00,,,0.00,weatherlink.com 1.10,2013-07-11 11:33:00,
2013-07-11 07:48:00,63.4,59.0,29.96,ENE,60,1.0,3.0,85,0.00,,,0.00,weatherlink.com 1.10,2013-07-11 11:48:00,
2013-07-11 08:03:00,65.0,60.0,29.96,West,262,0.0,5.0,83,0.00,,,0.00,weatherlink.com 1.10,2013-07-11 12:03:00,
2013-07-11 08:18:00,67.6,60.0,29.97,North,354,3.0,7.0,77,0.00,,,0.00,weatherlink.com 1.10,2013-07-11 12:18:00,
2013-07-11 08:34:00,68.2,61.0,29.98,NNW,335,1.0,4.0,77,0.00,,,0.00,weatherlink.com 1.10,2013-07-11 12:34:00,
2013-07-11 08:49:00,69.7,61.0,29.98,NNW,340,1.0,4.0,74,0.00,,,0.00,weatherlink.com 1.10,2013-07-11 12:49:00,
2013-07-11 09:04:00,69.8,61.0,29.98,NE,40,2.0,6.0,73,0.00,,,0.00,weatherlink.com 1.10,2013-07-11 13:04:00,
2013-07-11 09:19:00,70.8,61.0,29.98,East,91,5.0,6.0,71,0.00,,,0.00,weatherlink.com 1.10,2013-07-11 13:19:00,
2013-07-11 09:34:00,71.6,62.0,29.98,ENE,66,1.0,6.0,71,0.00,,,0.00,weatherlink.com 1.10,2013-07-11 13:34:00,
2013-07-11 09:49:00,71.6,62.0,29.98,North,357,3.0,8.0,71,0.00,,,0.00,weatherlink.com 1.10,2013-07-11 13:49:00,
2013-07-11 10:04:00,72.6,62.0,29.98,ENE,63,3.0,8.0,70,0.00,,,0.00,weatherlink.com 1.10,2013-07-11 14:04:00,
2013-07-11 10:19:00,72.9,62.0,29.98,NNE,26,2.0,9.0,69,0.00,,,0.00,weatherlink.com 1.10,2013-07-11 14:19:00,
2013-07-11 10:49:00,74.6,63.0,29.98,West,271,1.0,6.0,67,0.00,,,0.00,weatherlink.com 1.10,2013-07-11 14:49:00,
2013-07-11 11:04:00,74.9,61.0,29.99,North,359,3.0,10.0,63,0.00,,,0.00,weatherlink.com 1.10,2013-07-11 15:04:00,
2013-07-11 11:19:00,75.4,62.0,29.99,East,101,2.0,9.0,63,0.00,,,0.00,weatherlink.com 1.10,2013-07-11 15:19:00,
2013-07-11 11:34:00,76.7,63.0,29.99,NNW,346,5.0,8.0,63,0.00,,,0.00,weatherlink.com 1.10,2013-07-11 15:34:00,
2013-07-11 11:49:00,76.0,62.0,29.99,North,357,2.0,8.0,62,0.00,,,0.00,weatherlink.com 1.10,2013-07-11 15:49:00,
2013-07-11 12:04:00,75.5,61.0,29.99,NNE,26,4.0,9.0,61,0.00,,,0.00,weatherlink.com 1.10,2013-07-11 16:04:00,
2013-07-11 12:19:00,76.0,60.0,30.00,WSW,238,5.0,9.0,58,0.00,,,0.00,weatherlink.com 1.10,2013-07-11 16:19:00,
2013-07-11 12:49:00,76.1,63.0,30.00,East,80,2.0,8.0,63,0.00,,,0.00,weatherlink.com 1.10,2013-07-11 16:49:00,
2013-07-11 13:04:00,76.7,62.0,30.00,SW,217,2.0,11.0,60,0.00,,,0.00,weatherlink.com 1.10,2013-07-11 17:04:00,
2013-07-11 13:49:00,77.4,62.0,30.00,North,1,2.0,8.0,59,0.00,,,0.00,weatherlink.com 1.10,2013-07-11 17:49:00,
2013-07-11 14:04:00,75.9,59.0,30.00,NNE,17,3.0,8.0,57,0.00,,,0.00,weatherlink.com 1.10,2013-07-11 18:04:00,
2013-07-11 14:19:00,76.7,60.0,30.00,ENE,57,1.0,11.0,57,0.00,,,0.00,weatherlink.com 1.10,2013-07-11 18:19:00,
2013-07-11 14:34:00,76.4,58.0,30.00,NE,53,5.0,9.0,54,0.00,,,0.00,weatherlink.com 1.10,2013-07-11 18:34:00,
2013-07-11 14:49:00,77.8,61.0,30.00,WSW,242,2.0,11.0,56,0.00,,,0.00,weatherlink.com 1.10,2013-07-11 18:49:00,
2013-07-11 15:04:00,77.3,61.0,30.00,SSE,162,1.0,-999.0,57,-99.99,,,0.00,weatherlink.com 1.10,2013-07-11 19:04:00,
2013-07-11 15:19:00,78.1,61.0,30.00,NNE,19,4.0,8.0,56,0.00,,,0.00,weatherlink.com 1.10,2013-07-11 19:19:00,
2013-07-11 15:34:00,78.7,62.0,30.00,NNE,23,6.0,9.0,56,0.00,,,0.00,weatherlink.com 1.10,2013-07-11 19:34:00,
2013-07-11 15:49:00,79.0,61.0,30.00,NNE,29,2.0,6.0,54,0.00,,,0.00,weatherlink.com 1.10,2013-07-11 19:49:00,
2013-07-11 16:04:00,79.1,61.0,29.99,NNE,30,2.0,7.0,55,0.00,,,0.00,weatherlink.com 1.10,2013-07-11 20:04:00,
2013-07-11 16:19:00,78.4,59.0,30.00,North,5,2.0,7.0,51,0.00,,,0.00,weatherlink.com 1.10,2013-07-11 20:19:00,
2013-07-11 16:34:00,79.1,60.0,29.99,North,1,2.0,7.0,53,0.00,,,0.00,weatherlink.com 1.10,2013-07-11 20:34:00,
2013-07-11 16:49:00,78.5,58.0,29.99,East,95,3.0,8.0,49,0.00,,,0.00,weatherlink.com 1.10,2013-07-11 20:49:00,
2013-07-11 17:04:00,78.6,59.0,29.99,NNW,345,5.0,7.0,51,0.00,,,0.00,weatherlink.com 1.10,2013-07-11 21:04:00,
2013-07-11 17:19:00,78.4,58.0,29.99,West,280,2.0,7.0,50,0.00,,,0.00,weatherlink.com 1.10,2013-07-11 21:19:00,
2013-07-11 17:34:00,79.0,60.0,29.99,West,267,2.0,7.0,52,0.00,,,0.00,weatherlink.com 1.10,2013-07-11 21:34:00,
2013-07-11 17:49:00,78.0,59.0,29.98,WSW,251,2.0,5.0,52,0.00,,,0.00,weatherlink.com 1.10,2013-07-11 21:49:00,
2013-07-11 18:04:00,78.2,59.0,29.98,East,82,2.0,7.0,51,0.00,,,0.00,weatherlink.com 1.10,2013-07-11 22:04:00,
2013-07-11 18:19:00,78.8,58.0,29.99,NNW,336,1.0,8.0,49,0.00,,,0.00,weatherlink.com 1.10,2013-07-11 22:19:00,
2013-07-11 18:34:00,78.0,57.0,29.99,ENE,74,2.0,6.0,49,0.00,,,0.00,weatherlink.com 1.10,2013-07-11 22:34:00,
2013-07-11 18:49:00,78.5,59.0,29.99,NE,51,0.0,4.0,51,0.00,,,0.00,weatherlink.com 1.10,2013-07-11 22:49:00,
2013-07-11 19:04:00,78.0,58.0,29.98,WSW,249,0.0,5.0,50,0.00,,,0.00,weatherlink.com 1.10,2013-07-11 23:04:00,
2013-07-11 19:19:00,78.2,59.0,29.98,NNE,12,0.0,5.0,52,0.00,,,0.00,weatherlink.com 1.10,2013-07-11 23:19:00,
2013-07-11 19:35:00,77.9,59.0,29.98,NNE,29,2.0,4.0,53,0.00,,,0.00,weatherlink.com 1.10,2013-07-11 23:35:00,
2013-07-11 19:50:00,77.4,59.0,29.98,NNE,17,1.0,5.0,54,0.00,,,0.00,weatherlink.com 1.10,2013-07-11 23:50:00,
2013-07-11 20:05:00,76.6,58.0,29.98,NNW,338,0.0,3.0,53,0.00,,,0.00,weatherlink.com 1.10,2013-07-12 00:05:00,
2013-07-11 20:20:00,74.9,59.0,29.98,North,4,0.0,1.0,58,0.00,,,0.00,weatherlink.com 1.10,2013-07-12 00:20:00,
2013-07-11 20:35:00,73.8,60.0,29.98,NNE,15,0.0,1.0,62,0.00,,,0.00,weatherlink.com 1.10,2013-07-12 00:35:00,
2013-07-11 20:50:00,72.2,59.0,29.98,NNE,15,0.0,0.0,64,0.00,,,0.00,weatherlink.com 1.10,2013-07-12 00:50:00,
2013-07-11 21:05:00,70.4,60.0,29.98,NNE,15,0.0,0.0,70,0.00,,,0.00,weatherlink.com 1.10,2013-07-12 01:05:00,
2013-07-11 21:20:00,68.9,60.0,29.97,NNE,15,0.0,0.0,74,0.00,,,0.00,weatherlink.com 1.10,2013-07-12 01:20:00,
2013-07-11 21:50:00,66.1,59.0,29.98,NNE,15,0.0,0.0,79,0.00,,,0.00,weatherlink.com 1.10,2013-07-12 01:50:00,
2013-07-11 22:06:00,65.0,60.0,29.98,NNE,16,0.0,0.0,83,0.00,,,0.00,weatherlink.com 1.10,2013-07-12 02:06:00,
2013-07-11 22:20:00,64.6,60.0,29.98,NNE,15,0.0,0.0,84,0.00,,,0.00,weatherlink.com 1.10,2013-07-12 02:20:00,
2013-07-11 22:35:00,63.2,59.0,29.99,NNE,15,0.0,0.0,86,0.00,,,0.00,weatherlink.com 1.10,2013-07-12 02:35:00,
2013-07-11 22:50:00,62.2,59.0,29.99,NNE,16,0.0,0.0,89,0.00,,,0.00,weatherlink.com 1.10,2013-07-12 02:50:00,
2013-07-11 23:35:00,61.2,59.0,29.99,NNE,16,0.0,0.0,93,0.00,,,0.00,weatherlink.com 1.10,2013-07-12 03:35:00,
2013-07-11 23:50:00,62.0,59.0,29.99,ENE,63,0.0,0.0,90,0.00,,,0.00,weatherlink.com 1.10,2013-07-12 03:50:00,